Погода в Ивано-Франково

Украина / Львовская область     49°55′13″N   23°44′05″E
темп.,
°C
ветер,
м/с
пор.,
м/с
влажн.,
%
обл.,
%
осадки,
мм/ч
давл.,
гПа
погр.,
м
31 июля, сб
сб3100:00+19ю37760 0.0 1010122
03:00+18ююз22770 0.0 101032
06:00+17юз227787 0.0 100912
09:00+23ююз236276 0.1 1010221
12:00+28юз4547100 0.0 10091039
15:00+30ююз2541100 0.0 10082148
18:00+19св369579 7.9 1008122
21:00+17сз4799100 33.9 1010344
1 августа, вс
вс100:00+17юз119896 1.9 101197
03:00+15юз239944 1.9 101194
06:00+15юз11951 0.0 101112
09:00+19ю12824 0.0 1011211
12:00+25юв34585 0.0 1010796
15:00+27вюв5547100 0.0 10081032
18:00+27юв510595 0.0 1005658
21:00+22ююз2580100 0.0 1005133
2 августа, пн
пн200:00+17юз399118 0.9 1006251
03:00+16зюз379829 1.4 1007150
06:00+16з499990 0.0 1007402
09:00+16зсз4796100 0.1 1009623
12:00+15зсз4794100 0.5 1011470
15:00+16зсз4692100 0.7 1012455
18:00+16зсз368453 0.0 1012419
21:00+14зюз259585 0.0 1013115
3 августа, вт
вт300:00+13зюз269728 0.0 1014125
03:00+13зюз259714 0.0 1015107
06:00+12зюз23954 0.0 101653
09:00+17з35760 0.0 1016362
12:00+21з45604 0.2 10161355
15:00+23з464740 0.8 10152154
18:00+23зсз45515 0.0 10151675
21:00+17вюв117218 0.0 101511
4 августа, ср
ср400:00+16юв2279100 0.0 101521
03:00+16ююв3578100 0.0 101581
06:00+14ююв39925 0.0 1015177
09:00+19ююз4668100 0.0 1015232
12:00+24ююз354952 0.0 1014861
15:00+27ю2543100 0.0 10131931
18:00+25в0159100 0.0 101245
21:00+19вюв2681100 0.0 1012127